Flag for U.S.A. Weather past 2 weeks in Chesapeake, Virginia, U.S.A.

Now
34 °F

Light snow. Mostly cloudy.


Feels Like: 30 °F
Forecast: 32 / 41 °F
Wind: 5 mph from Northwest

Location: Chesapeake Municipal Airport

Current Time: Jan 27, 2015 at 7:58:38 AM

Latest Report: Jan 27, 2015 at 7:15 AM


Visibility: 3 mi

Pressure: 29.75 "Hg

Humidity: 93%

Dew point: 32 °F

Location of ChesapeakeLocation

Historic Weather in Chesapeake — Graph

°F

Chesapeake temperature yesterday

Maximum temperature yesterday: 54 °F (at 11:55 AM)
Minimum temperature yesterday: 36 °F (at 1:15 AM)
Average temperature yesterday: 44 °F

Past Weeks' High & Low Weather Summary

 TemperatureHumidityPressure
High66 °F (Jan 20, 3:15 PM)100% (Jan 12, 6:15 AM)30.47 "Hg (Jan 12, 6:15 AM)
Low28 °F (Jan 23, 12:35 AM)34% (Jan 20, 2:55 PM)29.44 "Hg (Jan 24, 12:55 PM)
Average43 °F83%30.06 "Hg
* Reported Jan 12 6:15 AM — Jan 27 6:35 AM, Chesapeake, Weather by CustomWeather, © 2014

Note: Actual official high and low records may vary slightly from our data, if they occured in-between our weather recording intervals... More about our weather records

Advertising

Chesapeake weather history for previous 24 hours

 ConditionsComfort  
Time TempWeatherWind HumidityBarometerVisibility
6:35 AM
Jan 27
34 °FLight snow. Mostly cloudy.5 mph87%29.73 "Hg4 mi
6:15 AM34 °FLight snow. Overcast.6 mph87%29.72 "Hg2 mi
5:55 AM34 °FLight snow. Overcast.8 mph87%29.70 "Hg4 mi
5:35 AM34 °FLight snow. Overcast.9 mph87%29.70 "Hg5 mi
5:15 AM34 °FLight snow. Overcast.5 mph87%29.69 "Hg7 mi
4:55 AM34 °FLight snow. Mostly cloudy.8 mph87%29.69 "Hg4 mi
4:15 AM34 °FLight snow. Mostly cloudy.8 mph87%29.68 "Hg5 mi
3:55 AM34 °FLight snow. Mostly cloudy.8 mph93%29.68 "Hg2 mi
3:35 AM36 °FLight snow. Mostly cloudy.9 mph87%29.68 "Hg4 mi
3:15 AM36 °FLight snow. Mostly cloudy.12 mph93%29.68 "Hg5 mi
2:55 AM36 °FLight snow. Overcast.9 mph93%29.68 "Hg3 mi
2:35 AM36 °FMostly cloudy.9 mph93%29.68 "Hg7 mi
2:15 AM36 °FLight snow. Mostly cloudy.10 mph93%29.67 "Hg5 mi
1:55 AM37 °FMostly cloudy.9 mph87%29.66 "Hg10 mi
1:35 AM37 °FMostly cloudy.8 mph87%29.65 "Hg10 mi
1:15 AM37 °FMostly cloudy.8 mph87%29.64 "Hg10 mi
12:55 AM37 °FDrizzle. Mostly cloudy.9 mph93%29.64 "Hg7 mi
12:35 AM37 °FOvercast.10 mph93%29.64 "Hg10 mi
12:15 AM39 °FOvercast.13 mph87%29.64 "Hg10 mi
11:55 PM
Jan 26
39 °FLow clouds.10 mph93%29.64 "Hg10 mi
11:15 PM39 °FLow clouds.14 mph87%29.64 "Hg10 mi
10:55 PM39 °FLow clouds.16 mph93%29.64 "Hg10 mi
10:15 PM41 °FLow clouds.10 mph87%29.63 "Hg10 mi
9:55 PM41 °FLow clouds.13 mph87%29.62 "Hg10 mi
9:15 PM43 °FLow clouds.12 mph87%29.61 "Hg10 mi
8:55 PM43 °FLow clouds.13 mph87%29.62 "Hg10 mi
8:15 PM43 °FLow clouds.13 mph87%29.62 "Hg10 mi
7:55 PM43 °FLow clouds.12 mph93%29.61 "Hg10 mi
7:35 PM45 °FLow clouds.10 mph87%29.61 "Hg10 mi
7:15 PM45 °FOvercast.12 mph87%29.61 "Hg10 mi
6:55 PM46 °FOvercast.9 mph87%29.60 "Hg10 mi
6:15 PM48 °FOvercast.9 mph82%29.59 "Hg10 mi
5:55 PM48 °FOvercast.5 mph87%29.58 "Hg10 mi
5:35 PM48 °FThundershowers. Mostly cloudy.6 mph87%29.57 "Hg10 mi
5:15 PM48 °FMostly cloudy.6 mph87%29.56 "Hg10 mi
4:55 PM50 °FOvercast.7 mph82%29.57 "Hg10 mi
4:35 PM48 °FOvercast.8 mph87%29.58 "Hg10 mi
3:55 PM48 °FMostly cloudy.7 mph87%29.57 "Hg10 mi
3:15 PM48 °FMore clouds than sun.6 mph82%29.56 "Hg10 mi
2:55 PM48 °FOvercast.6 mph82%29.55 "Hg10 mi
2:15 PM48 °FScattered clouds.7 mph82%29.57 "Hg10 mi
1:55 PM50 °FSunny.7 mph76%29.57 "Hg10 mi
1:15 PM52 °FSunny.7 mph77%29.58 "Hg10 mi
12:55 PM52 °FSunny.6 mph77%29.60 "Hg10 mi
12:35 PM52 °FSunny.8 mph77%29.61 "Hg10 mi
12:15 PM52 °FSunny.7 mph77%29.60 "Hg10 mi
11:55 AM54 °FSunny.5 mph72%29.63 "Hg10 mi
11:35 AM52 °FSunny.5 mph72%29.64 "Hg10 mi
11:15 AM52 °FScattered clouds.6 mph72%29.65 "Hg10 mi
10:55 AM52 °FPartly sunny.3 mph72%29.67 "Hg10 mi
10:15 AM48 °FScattered clouds.3 mph82%29.69 "Hg10 mi
9:55 AM46 °FScattered clouds.No wind87%29.70 "Hg10 mi
9:35 AM46 °FBroken clouds.No wind87%29.71 "Hg10 mi
9:15 AM45 °FMostly cloudy.No wind93%29.72 "Hg10 mi
8:55 AM45 °FOvercast.No wind93%29.72 "Hg10 mi
8:35 AM45 °FPartly sunny.No wind93%29.71 "Hg10 mi
8:15 AM43 °FScattered clouds.5 mph100%29.70 "Hg10 mi
7:55 AM43 °FBroken clouds.3 mph100%29.72 "Hg10 mi
7:35 AM39 °FPartly sunny.No wind100%29.73 "Hg10 mi
7:15 AM41 °FScattered clouds.No wind93%29.73 "Hg10 mi
Weather by CustomWeather, © 2014

See weather overviewHow to use our weather pages